This is the latest recevied weather packets stored in our database for station/object VK3AGD-9. If no packets are shown the sender has not sent any weather packets the latest 1 day(s).
| Time | Temp. | Humidity | Pressure | Rain* | Wind** | Luminosity | Snow |
|---|---|---|---|---|---|---|---|
| 1778082385 | 6.11° C | 93% | - | 0 mm | - | - | - |
| 1778081424 | 6.67° C | 93% | - | 0 mm | - | - | - |
| 1778071536 | 8.33° C | 99% | - | 0 mm | - | - | - |
| 1778070672 | 8.33° C | 99% | - | 0 mm | - | - | - |
| 1778065295 | 10° C | 99% | - | 0 mm | - | - | - |
| 1778064336 | 10.56° C | 99% | - | 0 mm | - | - | - |
| 1778061648 | 11.67° C | 99% | - | 0 mm | - | - | - |
| 1778060785 | 11.67° C | 98% | - | 0 mm | - | - | - |
| 1778059823 | 11.67° C | 98% | - | 0 mm | - | - | - |
| 1778058960 | 11.67° C | 98% | - | 0 mm | - | - | - |
| 1778055407 | 12.78° C | 85% | - | 0 mm | - | - | - |
| 1778053584 | 13.89° C | 77% | - | 0 mm | - | - | - |
| 1778052624 | 14.44° C | 75% | - | 0 mm | - | - | - |
| 1778050896 | 14.44° C | 73% | - | 0 mm | - | - | - |
| 1778049936 | 14.44° C | 72% | - | 0 mm | - | - | - |
| 1778049072 | 14.44° C | 72% | - | 0 mm | - | - | - |
| 1778048207 | 15° C | 71% | - | 0 mm | - | - | - |
| 1778047247 | 15.56° C | 69% | - | 0 mm | - | - | - |
| 1778046383 | 15.56° C | 70% | - | 0 mm | - | - | - |
| 1778045424 | 15.56° C | 70% | - | 0 mm | - | - | - |
| 1778044560 | 15.56° C | 70% | - | 0 mm | - | - | - |
| 1778043696 | 15.56° C | 70% | - | 0 mm | - | - | - |
| 1778042735 | 15° C | 71% | - | 0 mm | - | - | - |
| 1778041871 | 15° C | 71% | - | 0 mm | - | - | - |
| 1778041008 | 15.56° C | 70% | - | 0 mm | - | - | - |
* Rain latest hour (hover to see other rain measurements)
** Current wind speed in m/s (hover to see current wind gust speed)